TimeEST,TemperatureF,Dew PointF,Humidity,Sea Level PressureIn,VisibilityMPH,Wind Direction,Wind SpeedMPH,Gust SpeedMPH,PrecipitationIn,Events,Conditions,WindDirDegrees,DateUTC
12:37 AM,39.2,37.4,93,30.22,10.0,Variable,4.6,-,0.01,Rain,Light Rain,0,2013-01-12 05:37:00
1:10 AM,39.2,37.4,93,30.22,4.0,ESE,4.6,-,0.00,Rain,Light Rain,110,2013-01-12 06:10:00
1:53 AM,39.2,39.2,100,30.20,10.0,ESE,5.8,-,0.00,,Overcast,110,2013-01-12 06:53:00
1:56 AM,39.9,39.0,97,30.21,10.0,East,4.6,-,0.00,,Overcast,100,2013-01-12 06:56:00
2:04 AM,39.2,39.2,100,30.20,10.0,ESE,4.6,-,0.00,Rain,Light Rain,120,2013-01-12 07:04:00
2:56 AM,41.0,39.9,96,30.18,8.0,Variable,6.9,-,0.00,,Overcast,0,2013-01-12 07:56:00
3:52 AM,41.0,39.2,93,30.16,10.0,SE,5.8,-,N/A,,Overcast,130,2013-01-12 08:52:00
3:56 AM,41.0,39.9,96,30.16,10.0,ESE,4.6,-,N/A,,Overcast,120,2013-01-12 08:56:00
4:30 AM,41.0,39.2,93,30.14,10.0,SE,4.6,-,N/A,,Overcast,130,2013-01-12 09:30:00
4:41 AM,41.0,39.2,93,30.14,10.0,ESE,3.5,-,N/A,,Overcast,120,2013-01-12 09:41:00
4:56 AM,41.0,39.9,96,30.15,10.0,ESE,4.6,-,N/A,,Overcast,120,2013-01-12 09:56:00
5:56 AM,41.0,39.0,93,30.15,10.0,Variable,3.5,-,N/A,,Overcast,0,2013-01-12 10:56:00
6:56 AM,41.0,39.0,93,30.14,10.0,SE,5.8,-,N/A,,Overcast,140,2013-01-12 11:56:00
7:03 AM,41.0,39.2,93,30.14,10.0,SE,5.8,-,N/A,,Overcast,130,2013-01-12 12:03:00
7:44 AM,42.8,41.0,93,30.16,10.0,ESE,3.5,-,N/A,,Overcast,120,2013-01-12 12:44:00
7:56 AM,42.1,39.9,92,30.15,10.0,ESE,4.6,-,N/A,,Overcast,120,2013-01-12 12:56:00
8:23 AM,42.8,41.0,93,30.16,10.0,ESE,3.5,-,N/A,,Overcast,120,2013-01-12 13:23:00
8:56 AM,43.0,42.1,97,30.17,10.0,SE,3.5,-,N/A,,Overcast,130,2013-01-12 13:56:00
9:52 AM,44.6,42.8,93,30.17,10.0,SE,4.6,-,N/A,,Overcast,140,2013-01-12 14:52:00
9:56 AM,45.0,43.0,93,30.17,10.0,East,6.9,-,N/A,,Overcast,90,2013-01-12 14:56:00
10:26 AM,44.6,42.8,93,30.17,10.0,ESE,3.5,-,N/A,,Overcast,120,2013-01-12 15:26:00
10:56 AM,45.0,42.1,90,30.17,10.0,ESE,5.8,-,N/A,,Overcast,110,2013-01-12 15:56:00
11:56 AM,46.9,42.1,83,30.13,10.0,Variable,4.6,-,N/A,,Overcast,0,2013-01-12 16:56:00
12:56 PM,46.0,41.0,83,30.13,10.0,ESE,6.9,-,N/A,,Overcast,120,2013-01-12 17:56:00
1:56 PM,46.0,39.0,76,30.12,10.0,SE,8.1,-,N/A,,Overcast,130,2013-01-12 18:56:00
2:56 PM,46.0,39.9,79,30.17,10.0,ESE,3.5,-,N/A,,Overcast,110,2013-01-12 19:56:00
3:20 PM,46.4,39.2,76,30.15,10.0,SE,5.8,-,N/A,,Overcast,130,2013-01-12 20:20:00
3:56 PM,45.0,41.0,86,30.15,10.0,ESE,4.6,-,N/A,,Overcast,110,2013-01-12 20:56:00
4:05 PM,44.6,41.0,87,30.14,10.0,SE,5.8,-,N/A,,Overcast,130,2013-01-12 21:05:00
4:17 PM,44.6,42.8,93,30.14,10.0,ESE,4.6,-,N/A,,Overcast,110,2013-01-12 21:17:00
4:56 PM,44.1,43.0,96,30.14,10.0,Calm,Calm,-,N/A,,Overcast,0,2013-01-12 21:56:00
5:07 PM,44.6,42.8,93,30.14,10.0,Calm,Calm,-,N/A,,Overcast,0,2013-01-12 22:07:00
5:56 PM,42.1,41.0,96,30.13,10.0,Calm,Calm,-,N/A,,Overcast,0,2013-01-12 22:56:00
6:56 PM,43.0,42.1,97,30.15,10.0,Calm,Calm,-,N/A,,Overcast,0,2013-01-12 23:56:00
7:56 PM,42.1,41.0,96,30.14,10.0,Calm,Calm,-,N/A,,Overcast,0,2013-01-13 00:56:00
8:56 PM,39.0,37.9,96,30.13,6.0,Calm,Calm,-,N/A,,Mostly Cloudy,0,2013-01-13 01:56:00
9:36 PM,41.0,39.2,93,30.13,9.0,Calm,Calm,-,N/A,,Overcast,0,2013-01-13 02:36:00
9:47 PM,41.0,39.2,93,30.13,9.0,Calm,Calm,-,N/A,,Overcast,0,2013-01-13 02:47:00
9:56 PM,41.0,41.0,100,30.14,10.0,Calm,Calm,-,N/A,,Overcast,0,2013-01-13 02:56:00
10:56 PM,42.1,41.0,96,30.14,7.0,Calm,Calm,-,N/A,,Overcast,0,2013-01-13 03:56:00
11:15 PM,42.8,41.0,93,30.12,7.0,Calm,Calm,-,N/A,,Overcast,0,2013-01-13 04:15:00
11:56 PM,43.0,42.1,97,30.11,10.0,SE,3.5,-,N/A,,Overcast,140,2013-01-13 04:56:00